Previsão horária em Allo

Hoje, 15 Junho, Terça-feira

Tempo Temperatura Precipitação Vento Pressão Humidade
00:00 +18°C° 0 mm 2 m/s 720 mmHg 83%
01:00 +18°C° 0 mm 2 m/s 720 mmHg 83%
02:00 +17°C° 0 mm 2 m/s 720 mmHg 82%
03:00 +17°C° 0 mm 2 m/s 720 mmHg 82%
04:00 +17°C° 0 mm 2 m/s 720 mmHg 80%
05:00 +18°C° 0 mm 2 m/s 720 mmHg 78%
06:00 +18°C° 0 mm 2 m/s 720 mmHg 76%
07:00 +20°C° 0 mm 2 m/s 720 mmHg 69%
08:00 +23°C° 0 mm 2 m/s 720 mmHg 61%
09:00 +25°C° 0 mm 1 m/s 720 mmHg 53%
10:00 +27°C° 0 mm 1 m/s 720 mmHg 48%
11:00 +29°C° 0 mm 1 m/s 720 mmHg 43%
12:00 +31°C° 0 mm 1 m/s 720 mmHg 39%
13:00 +31°C° 0 mm 1 m/s 719 mmHg 36%
14:00 +32°C° 0 mm 2 m/s 718 mmHg 34%
15:00 +34°C° 0 mm 2 m/s 717 mmHg 32%
16:00 +30°C° 0.4 mm 3 m/s 718 mmHg 44%
17:00 +26°C° 0.4 mm 4 m/s 718 mmHg 56%
18:00 +22°C° 0.4 mm 5 m/s 718 mmHg 68%
19:00 +22°C° 0.3 mm 4 m/s 718 mmHg 70%
20:00 +21°C° 0.3 mm 3 m/s 718 mmHg 71%
21:00 +20°C° 0.3 mm 2 m/s 717 mmHg 72%
22:00 +21°C° 0.1 mm 1 m/s 717 mmHg 73%
23:00 +21°C° 0.1 mm 1 m/s 717 mmHg 74%

Amanhã, 16 Junho, Quarta-feira

Tempo Temperatura Precipitação Vento Pressão Humidade
00:00 +20°C° 0.1 mm 1 m/s 717 mmHg 75%
01:00 +20°C° 0.1 mm 1 m/s 717 mmHg 75%
02:00 +20°C° 0.1 mm 1 m/s 716 mmHg 75%
03:00 +20°C° 0.1 mm 1 m/s 716 mmHg 76%
04:00 +21°C° 0.1 mm 1 m/s 716 mmHg 75%
05:00 +21°C° 0.1 mm 1 m/s 716 mmHg 74%
06:00 +21°C° 0.1 mm 1 m/s 716 mmHg 74%
07:00 +23°C° 0 mm 2 m/s 716 mmHg 66%
08:00 +25°C° 0 mm 3 m/s 716 mmHg 58%
09:00 +26°C° 0 mm 4 m/s 716 mmHg 50%
10:00 +28°C° 0 mm 5 m/s 715 mmHg 45%
11:00 +30°C° 0 mm 6 m/s 715 mmHg 41%
12:00 +32°C° 0 mm 6 m/s 715 mmHg 37%
13:00 +32°C° 0 mm 6 m/s 714 mmHg 38%
14:00 +32°C° 0 mm 7 m/s 714 mmHg 39%
15:00 +32°C° 0 mm 7 m/s 713 mmHg 40%
16:00 +29°C° 0.3 mm 6 m/s 713 mmHg 47%
17:00 +27°C° 0.3 mm 5 m/s 713 mmHg 54%
18:00 +25°C° 0.3 mm 3 m/s 713 mmHg 60%
19:00 +24°C° 1.6 mm 3 m/s 714 mmHg 68%
20:00 +21°C° 1.6 mm 2 m/s 714 mmHg 76%
21:00 +19°C° 1.6 mm 2 m/s 715 mmHg 84%
22:00 +20°C° 0.7 mm 1 m/s 714 mmHg 84%
23:00 +19°C° 0.7 mm 1 m/s 714 mmHg 85%

Depois de amanhã, 17 Junho, Quinta-feira

Tempo Temperatura Precipitação Vento Pressão Humidade
00:00 +19°C° 0.7 mm 1 m/s 714 mmHg 85%
01:00 +19°C° 0 mm 1 m/s 714 mmHg 85%
02:00 +19°C° 0 mm 1 m/s 713 mmHg 84%
03:00 +19°C° 0 mm 1 m/s 713 mmHg 84%
04:00 +19°C° 0.7 mm 1 m/s 713 mmHg 86%
05:00 +18°C° 0.7 mm 2 m/s 713 mmHg 88%
06:00 +18°C° 0.7 mm 2 m/s 713 mmHg 89%
07:00 +18°C° 2.1 mm 2 m/s 713 mmHg 90%
08:00 +18°C° 2.1 mm 1 m/s 713 mmHg 90%
09:00 +18°C° 2.1 mm 1 m/s 713 mmHg 91%
10:00 +18°C° 3.5 mm 1 m/s 713 mmHg 90%
11:00 +17°C° 3.5 mm 2 m/s 714 mmHg 90%
12:00 +16°C° 3.5 mm 2 m/s 714 mmHg 90%
13:00 +16°C° 1 mm 1 m/s 714 mmHg 89%
14:00 +16°C° 1 mm 1 m/s 714 mmHg 88%
15:00 +16°C° 1 mm 1 m/s 715 mmHg 87%
16:00 +18°C° 0.1 mm 1 m/s 715 mmHg 85%
17:00 +18°C° 0.1 mm 1 m/s 715 mmHg 82%
18:00 +19°C° 0.1 mm 1 m/s 715 mmHg 80%
19:00 +18°C° 0 mm 1 m/s 716 mmHg 83%
20:00 +16°C° 0 mm 1 m/s 716 mmHg 86%
21:00 +15°C° 0 mm 1 m/s 716 mmHg 90%
22:00 +15°C° 0 mm 1 m/s 716 mmHg 90%
23:00 +15°C° 0 mm 1 m/s 716 mmHg 90%

18 Junho, Sexta-feira

Tempo Temperatura Precipitação Vento Pressão Humidade
00:00 +15°C° 0 mm 1 m/s 716 mmHg 90%
01:00 +14°C° 0 mm 1 m/s 716 mmHg 91%
02:00 +14°C° 0 mm 1 m/s 716 mmHg 92%
03:00 +14°C° 0 mm 1 m/s 716 mmHg 92%
04:00 +14°C° 0 mm 1 m/s 716 mmHg 91%
05:00 +15°C° 0 mm 1 m/s 716 mmHg 90%
06:00 +15°C° 0 mm 1 m/s 716 mmHg 88%
07:00 +16°C° 0.3 mm 1 m/s 717 mmHg 86%
08:00 +18°C° 0.3 mm 1 m/s 717 mmHg 84%
09:00 +18°C° 0.3 mm 1 m/s 717 mmHg 81%
10:00 +19°C° 0.1 mm 2 m/s 717 mmHg 75%
11:00 +21°C° 0.1 mm 2 m/s 717 mmHg 68%
12:00 +23°C° 0.1 mm 2 m/s 717 mmHg 62%
13:00 +24°C° 0.2 mm 3 m/s 717 mmHg 59%
14:00 +25°C° 0.2 mm 3 m/s 716 mmHg 55%
15:00 +26°C° 0.2 mm 3 m/s 716 mmHg 52%
16:00 +26°C° 0.2 mm 3 m/s 716 mmHg 55%
17:00 +26°C° 0.2 mm 2 m/s 715 mmHg 57%
18:00 +26°C° 0.2 mm 2 m/s 715 mmHg 60%
19:00 +24°C° 0.7 mm 2 m/s 715 mmHg 67%
20:00 +21°C° 0.7 mm 2 m/s 716 mmHg 75%
21:00 +19°C° 0.7 mm 2 m/s 716 mmHg 83%
22:00 +19°C° 0.6 mm 2 m/s 716 mmHg 84%
23:00 +18°C° 0.6 mm 2 m/s 715 mmHg 85%

19 Junho, Sábado

Tempo Temperatura Precipitação Vento Pressão Humidade
00:00 +18°C° 0.6 mm 2 m/s 715 mmHg 87%
01:00 +18°C° 0.3 mm 2 m/s 715 mmHg 88%
02:00 +18°C° 0.3 mm 2 m/s 714 mmHg 89%
03:00 +18°C° 0.3 mm 3 m/s 714 mmHg 90%
04:00 +18°C° 0.2 mm 3 m/s 714 mmHg 89%
05:00 +18°C° 0.2 mm 4 m/s 714 mmHg 89%
06:00 +19°C° 0.2 mm 4 m/s 713 mmHg 88%
07:00 +18°C° 2.7 mm 4 m/s 713 mmHg 90%
08:00 +18°C° 2.7 mm 4 m/s 712 mmHg 91%
09:00 +18°C° 2.7 mm 4 m/s 712 mmHg 92%
10:00 +18°C° 10 mm 4 m/s 712 mmHg 91%
11:00 +18°C° 10 mm 3 m/s 711 mmHg 91%
12:00 +17°C° 10 mm 3 m/s 711 mmHg 90%
13:00 +17°C° 0.9 mm 3 m/s 712 mmHg 87%
14:00 +17°C° 0.9 mm 3 m/s 712 mmHg 84%
15:00 +17°C° 0.9 mm 3 m/s 713 mmHg 80%
16:00 +18°C° 0.1 mm 3 m/s 713 mmHg 75%
17:00 +19°C° 0.1 mm 3 m/s 713 mmHg 70%
18:00 +19°C° 0.1 mm 3 m/s 713 mmHg 64%
19:00 +18°C° 0 mm 2 m/s 713 mmHg 71%
20:00 +17°C° 0 mm 2 m/s 714 mmHg 77%
21:00 +16°C° 0 mm 2 m/s 714 mmHg 84%
22:00 +15°C° 0 mm 2 m/s 714 mmHg 84%
23:00 +15°C° 0 mm 1 m/s 714 mmHg 83%

20 Junho, Domingo

Tempo Temperatura Precipitação Vento Pressão Humidade
00:00 +15°C° 0 mm 1 m/s 714 mmHg 83%
01:00 +15°C° 0 mm 1 m/s 715 mmHg 83%
02:00 +15°C° 0 mm 1 m/s 715 mmHg 83%
03:00 +15°C° 0 mm 1 m/s 715 mmHg 83%
04:00 +15°C° 0.3 mm 1 m/s 715 mmHg 83%
05:00 +15°C° 0.3 mm 1 m/s 715 mmHg 83%
06:00 +15°C° 0.3 mm 1 m/s 715 mmHg 83%
07:00 +18°C° 0.2 mm 1 m/s 716 mmHg 77%
08:00 +19°C° 0.2 mm 1 m/s 716 mmHg 71%
09:00 +21°C° 0.2 mm 1 m/s 716 mmHg 65%
10:00 +21°C° 0.4 mm 1 m/s 716 mmHg 61%
11:00 +21°C° 0.4 mm 2 m/s 716 mmHg 57%
12:00 +23°C° 0.4 mm 2 m/s 716 mmHg 53%
13:00 +21°C° 0.6 mm 2 m/s 716 mmHg 59%
14:00 +20°C° 0.6 mm 2 m/s 716 mmHg 65%
15:00 +19°C° 0.6 mm 2 m/s 716 mmHg 71%
16:00 +19°C° 1 mm 3 m/s 716 mmHg 74%
17:00 +18°C° 1 mm 3 m/s 716 mmHg 78%
18:00 +17°C° 1 mm 3 m/s 716 mmHg 81%
19:00 +17°C° 0.1 mm 3 m/s 717 mmHg 84%
20:00 +16°C° 0.1 mm 3 m/s 717 mmHg 87%
21:00 +15°C° 0.1 mm 2 m/s 718 mmHg 89%
22:00 +15°C° 0 mm 2 m/s 718 mmHg 90%
23:00 +14°C° 0 mm 2 m/s 717 mmHg 90%
Mostrar mais